GFSGL_925_temp_105.txt.gz
Temp
25 24 19 19 19 20 21 21 22 23 24 24 24 25 24 24 23 22 22 22 21 21 21 21 21 21 21 20 19 19 19 19 18 19 20 20 21 21 21 21 21 20 20
19 19 17 17 19 18 17 19 20 21 23 23 24 24 23 24 24 23 22 22 21 21 21 21 20 21 20 20 20 19 19 19 18 17 19 19 20 20 20 20 20 19 19
20 18 18 16 17 18 19 20 20 20 21 21 22 23 23 23 24 24 23 22 22 22 21 21 21 21 20 20 20 19 19 19 18 17 18 19 19 19 19 19 18 18 18
18 18 17 18 22 23 20 19 20 18 19 19 20 20 21 23 23 24 23 22 22 22 22 21 21 21 21 21 21 21 20 19 18 18 17 18 18 18 18 18 18 17 18
18 17 17 18 20 19 19 20 20 18 19 19 20 19 20 22 22 23 23 22 22 22 22 21 22 22 22 22 21 21 21 20 19 18 17 18 18 18 18 18 17 17 17
19 19 18 17 17 18 18 18 17 18 18 18 19 20 19 21 21 22 22 23 22 22 22 22 22 22 22 22 21 21 22 21 20 18 18 18 18 18 18 17 17 16 16
18 18 18 17 17 17 17 17 17 17 17 18 18 19 20 21 22 22 22 22 23 22 22 22 22 22 22 22 22 21 21 22 21 21 20 20 20 20 19 17 17 16 17
18 18 18 18 18 17 17 17 17 17 17 17 19 20 21 22 22 22 22 22 22 22 22 22 22 22 23 22 22 22 22 22 22 21 21 21 21 21 20 20 20 17 16
17 17 17 18 17 17 17 17 17 17 18 19 20 21 20 21 22 21 21 20 19 20 22 22 22 23 23 23 22 22 22 22 22 22 21 22 21 20 20 19 17 16 16
17 17 17 18 18 18 17 17 18 18 19 20 21 22 22 22 21 21 20 20 20 19 19 21 22 23 23 23 22 22 21 22 22 22 21 21 21 20 19 19 19 16 16
17 18 18 17 17 18 18 19 19 19 19 19 20 21 19 20 20 20 20 20 21 21 21 22 22 21 20 21 21 21 22 22 22 22 22 21 20 20 19 19 19 19 17
18 18 18 18 18 18 18 18 19 19 19 18 18 18 18 18 18 18 19 20 20 20 20 20 20 20 20 20 21 21 21 20 20 19 20 20 20 20 20 20 20 19 19
17 17 18 18 18 18 18 18 18 18 18 18 18 17 16 16 17 16 17 16 17 17 16 17 17 20 18 18 18 19 19 20 19 17 17 18 20 21 20 20 19 19 18
17 17 17 18 18 19 19 18 18 18 18 18 18 17 16 16 16 16 16 16 16 16 16 16 17 17 17 17 17 18 18 18 19 18 17 17 17 17 18 18 16 17 17
16 17 17 17 18 18 19 19 19 19 18 18 18 17 17 16 16 16 16 16 15 14 14 15 15 15 15 16 17 17 17 17 17 17 17 17 17 17 16 16 16 16 16
17 17 17 17 18 18 18 19 19 19 18 18 18 18 17 16 15 15 15 14 12 12 12 12 12 12 12 13 14 15 16 17 17 16 16 16 16 17 16 16 16 16 16
17 17 17 18 18 18 18 18 18 18 18 18 18 17 17 16 16 15 15 14 13 12 12 12 11 12 12 12 12 14 15 15 17 17 16 16 16 16 16 16 16 16 16
17 17 17 17 18 18 18 17 17 18 18 19 18 17 16 16 15 14 12 12 13 12 12 12 12 12 12 12 12 13 14 14 15 15 15 15 15 16 16 16 16 16 16
16 17 17 18 18 18 18 17 17 16 16 17 17 17 15 14 14 13 12 13 12 12 12 13 12 12 12 12 13 13 14 14 14 15 15 15 15 15 16 16 16 16 16
16 17 17 18 18 17 17 17 17 17 17 16 16 16 15 14 14 13 12 12 13 12 12 12 12 12 12 12 13 13 14 14 15 15 15 15 16 16 16 16 16 16 16
17 17 17 18 18 17 17 17 17 17 17 16 15 15 14 14 13 12 12 12 12 12 12 12 12 12 12 12 12 12 13 14 14 15 15 15 15 16 16 16 16 16 16
17 17 17 17 17 18 17 17 17 16 16 16 16 15 14 14 12 12 12 12 11 11 11 12 12 12 12 12 12 12 12 12 13 14 14 15 15 15 15 15 15 16 16
17 17 17 17 17 17 17 17 16 16 16 16 15 14 14 13 13 12 11 12 11 11 12 12 12 12 12 12 12 12 12 12 12 12 13 14 15 15 15 15 15 15 15
17 17 17 17 16 17 16 17 17 16 16 16 16 15 14 14 14 13 11 11 12 12 12 12 12 12 12 12 12 12 12 12 12 12 13 12 12 12 13 13 14 14 14
16 16 15 15 15 16 15 17 16 17 17 16 16 16 16 15 14 13 13 13 12 12 12 12 12 12 12 12 12 12 12 12 12 12 12 12 12 12 12 12 11 11 11
16 16 16 15 15 16 16 16 16 17 17 17 16 16 17 16 15 14 13 12 12 12 12 12 12 12 12 12 12 12 11 11 12 12 12 12 12 12 12 11 12 11 11

GFSGL_925_temp_108.txt.gz
Temp
18 19 19 18 19 20 20 21 21 21 22 22 23 23 23 23 23 22 22 23 21 21 21 21 21 21 20 20 20 19 19 18 18 19 19 19 20 20 21 21 21 21 20
18 18 20 20 19 19 19 19 20 20 20 22 22 22 24 24 24 23 22 22 22 20 20 20 21 20 20 20 20 20 19 19 18 18 18 18 19 20 20 20 20 20 19
18 18 18 21 23 25 25 23 17 19 20 22 21 21 22 23 24 23 23 23 23 22 21 21 21 20 20 20 20 20 19 19 19 18 17 18 19 19 19 19 19 19 18
17 18 19 19 21 22 22 19 20 19 19 20 20 21 21 21 23 23 23 23 23 23 22 21 21 21 21 21 20 20 19 19 18 18 17 17 17 18 18 18 18 18 18
18 17 19 20 18 16 16 16 16 17 18 19 19 19 19 20 21 21 22 22 23 22 21 21 21 21 21 21 21 20 20 18 19 18 17 17 17 17 17 18 17 18 18
17 17 17 18 18 18 18 17 17 17 18 18 18 18 19 19 21 22 21 22 22 21 22 22 21 21 21 21 21 21 21 20 18 18 18 17 17 17 17 17 17 17 17
17 17 17 17 18 18 19 18 16 16 17 17 18 17 18 19 19 20 19 20 22 22 22 22 22 22 22 22 22 21 21 21 21 20 19 20 20 20 19 17 17 17 17
17 17 17 17 17 17 17 17 16 17 17 17 18 18 18 19 19 20 20 21 22 21 22 22 22 22 22 22 22 22 21 21 21 21 21 21 22 22 20 20 19 17 17
16 16 17 17 17 17 17 17 17 17 17 17 18 18 19 19 20 20 21 22 21 21 20 20 19 19 23 23 21 21 21 22 22 21 21 22 21 21 20 19 17 16 16
15 16 17 17 17 17 17 17 18 18 18 18 19 19 19 19 19 20 20 20 20 19 19 20 20 20 20 23 22 21 20 22 22 22 21 21 21 20 19 19 19 17 17
17 17 17 17 17 17 17 17 18 18 18 18 18 18 18 20 19 19 20 19 19 18 19 20 21 20 21 21 22 22 22 22 22 21 21 21 20 20 20 19 19 18 18
17 17 17 17 17 17 17 18 18 18 18 18 17 16 16 17 18 18 18 18 18 18 18 18 18 19 20 19 18 19 21 20 20 19 18 18 19 20 20 20 20 20 19
17 17 17 18 18 18 18 18 18 17 17 16 16 15 15 15 16 16 16 17 17 17 17 16 16 18 18 18 18 18 18 19 19 18 18 18 19 20 20 19 19 19 18
17 17 18 18 18 19 18 18 18 18 17 17 16 15 15 15 15 15 15 16 16 16 16 16 15 16 16 16 16 17 17 17 17 16 17 18 18 18 18 18 17 17 16
16 16 17 17 18 19 19 18 18 18 18 17 17 16 16 15 15 15 16 16 15 14 15 14 14 14 14 13 13 14 15 16 16 16 16 16 17 17 17 17 16 16 16
16 16 16 17 18 18 18 18 18 18 18 18 17 17 16 16 15 15 15 14 13 13 13 12 12 12 12 12 12 13 13 14 15 15 16 16 16 17 17 16 16 16 16
16 16 16 17 17 17 17 17 17 18 18 18 18 17 17 16 15 15 15 14 13 13 12 12 12 12 12 12 12 12 12 13 13 14 15 15 16 16 16 16 16 16 16
16 16 16 17 17 17 17 17 17 16 16 17 17 17 17 16 15 15 14 13 13 12 12 12 12 13 12 12 12 12 12 13 13 14 14 14 15 15 16 16 16 16 16
16 16 16 17 17 17 16 16 16 16 16 16 16 16 16 15 14 14 13 13 12 13 12 12 12 11 12 12 12 12 13 13 13 14 14 14 15 15 15 15 16 16 16
16 16 17 17 17 17 17 16 16 16 16 16 15 15 15 14 13 13 13 12 12 12 12 11 11 11 11 11 12 12 12 12 13 14 14 14 14 15 15 15 15 16 15
16 16 17 17 17 17 16 16 16 16 16 16 15 15 14 14 14 12 12 12 12 12 12 12 11 12 11 12 12 12 12 12 12 12 13 14 15 15 15 15 16 16 16
16 17 17 17 17 17 17 16 16 16 16 16 16 15 15 14 14 13 12 12 12 12 11 11 11 11 11 11 11 11 11 12 12 12 12 12 13 14 15 15 15 15 16
17 16 16 16 16 16 16 16 15 15 16 16 16 16 15 14 14 14 14 13 12 12 11 11 11 12 12 12 12 12 11 11 12 12 12 12 12 12 13 14 15 15 15
16 16 15 16 16 15 15 15 16 16 16 16 16 17 16 16 15 15 14 13 13 12 12 12 12 12 12 12 12 12 12 12 11 11 12 12 12 12 11 11 12 13 15
16 16 16 15 15 15 14 15 16 15 15 15 16 16 17 16 17 16 15 14 13 12 12 12 12 12 12 12 12 12 12 12 12 12 12 12 11 12 11 11 11 11 11
14 14 13 13 13 13 12 12 13 14 15 15 15 15 16 16 16 16 16 15 14 13 12 12 12 12 12 12 11 11 11 11 12 12 12 11 12 12 11 11 11 10 10

GFSGL_925_temp_111.txt.gz
Temp
20 20 20 21 20 20 20 21 21 21 22 21 21 21 21 22 21 21 22 23 22 20 21 20 20 21 21 21 21 20 19 19 20 21 20 20 19 20 19 20 20 20 20
19 19 19 20 19 19 20 20 20 20 21 21 21 21 21 22 21 21 21 22 22 21 21 20 20 21 20 20 20 19 19 19 18 20 20 20 20 19 20 20 20 20 20
18 18 19 19 19 19 19 19 20 20 21 20 20 20 21 21 21 22 22 23 23 22 22 21 21 21 20 20 20 20 19 19 19 19 21 19 20 19 19 19 19 19 19
18 18 18 19 18 18 18 17 18 18 19 19 20 20 20 21 22 22 22 23 23 23 23 21 21 21 21 20 20 20 20 19 19 19 18 18 19 20 19 18 18 18 18
18 18 18 18 17 17 17 17 17 17 18 18 18 19 20 20 20 20 20 22 22 23 23 22 21 21 20 21 21 21 21 19 19 18 18 18 19 18 18 19 19 19 18
18 18 18 17 17 17 17 17 17 17 17 17 18 18 19 19 19 19 20 21 20 22 22 22 21 22 21 21 21 21 20 20 19 19 18 18 19 19 20 19 19 18 19
17 17 18 18 18 17 17 17 17 17 17 17 17 18 18 18 19 20 20 20 20 22 21 22 22 21 21 20 21 21 20 20 20 20 20 21 21 21 21 20 19 19 20
17 17 17 17 17 17 17 18 17 17 17 17 17 17 17 18 18 19 20 19 19 20 20 21 21 21 22 22 21 21 20 20 20 20 20 21 21 21 21 20 20 19 18
15 16 17 17 17 17 17 17 17 17 17 17 17 17 17 17 17 18 19 19 20 20 19 20 20 21 22 22 22 21 21 21 22 21 21 21 21 21 20 20 20 19 18
16 16 16 17 17 17 17 17 17 17 17 17 17 17 18 18 18 18 18 19 19 19 20 20 19 20 20 20 20 20 21 22 22 22 21 21 21 21 20 19 21 21 21
15 16 17 17 17 17 17 17 17 18 18 18 17 17 17 18 18 19 19 18 19 18 18 18 19 20 20 20 19 20 20 20 20 21 21 21 21 20 20 18 19 21 22
16 16 16 17 17 17 17 17 17 18 18 18 16 16 15 16 16 17 17 17 17 18 18 17 18 18 19 19 20 20 20 18 18 18 18 19 20 20 22 20 19 19 21
16 16 16 17 18 17 17 18 18 18 18 17 16 16 15 14 15 16 17 16 17 16 17 17 17 18 18 18 18 18 18 19 19 17 17 18 19 21 20 20 19 18 18
16 16 16 17 17 18 17 18 19 19 19 19 19 17 17 17 16 16 16 16 16 16 16 16 16 17 17 17 16 17 17 17 17 16 17 18 19 19 19 18 17 17 17
16 16 17 17 17 18 17 17 19 17 18 19 18 18 18 18 16 16 16 15 15 15 15 14 14 14 15 15 15 14 14 15 15 15 16 16 17 17 17 17 17 17 16
16 17 16 17 18 18 18 18 18 18 18 17 17 17 17 17 16 16 16 16 15 14 15 15 14 14 14 13 13 13 13 13 14 14 15 15 16 16 16 17 17 17 16
15 15 16 17 18 18 18 18 19 17 17 17 17 17 16 17 16 15 15 14 13 14 16 16 16 16 15 14 14 13 13 13 13 13 14 14 15 15 16 16 17 16 17
15 16 17 17 17 18 18 18 19 19 19 19 17 17 16 15 14 14 14 13 14 14 14 15 16 15 13 12 12 13 13 12 13 13 14 14 14 14 15 16 16 16 16
16 16 16 17 17 17 18 18 18 18 19 19 18 16 16 15 14 13 13 14 16 16 15 13 13 12 12 12 12 12 12 12 12 13 13 14 14 14 14 15 15 16 16
16 16 16 16 17 18 18 19 19 19 18 19 19 18 16 14 15 16 15 14 13 13 14 13 13 12 11 12 12 12 12 12 12 12 12 13 13 14 14 15 15 15 16
16 16 16 17 18 17 18 18 18 18 19 19 18 18 16 15 17 17 15 15 15 14 14 13 13 11 11 11 12 12 12 12 12 13 12 12 12 12 13 14 15 15 15
16 17 17 18 17 18 18 18 18 18 18 18 19 18 17 15 16 16 16 16 15 14 13 12 12 11 12 12 12 12 11 11 11 11 12 12 12 12 12 12 13 14 15
17 18 18 18 17 17 18 18 18 18 18 18 18 19 18 16 16 16 16 16 15 14 14 12 11 11 12 13 13 13 13 12 11 12 11 12 12 12 12 12 12 12 12
17 17 17 17 17 16 17 17 17 17 16 17 17 18 18 18 18 18 16 16 15 14 14 13 12 12 13 13 13 12 12 11 11 11 11 11 13 12 11 11 11 11 11
16 16 16 16 16 16 15 16 16 16 16 16 16 16 17 17 17 17 17 16 15 15 15 14 14 12 12 12 12 12 12 11 11 11 11 12 13 13 12 11 11 11 11
15 15 15 15 15 14 15 15 15 15 15 14 14 14 14 15 15 15 15 15 15 15 15 15 14 14 13 13 12 12 12 12 12 11 11 11 12 13 12 11 10 11 10

GFSGL_925_temp_114.txt.gz
Temp
22 22 21 21 20 21 21 22 22 23 23 22 24 24 24 24 24 23 23 24 24 24 24 23 23 23 22 21 21 21 21 21 22 25 26 25 22 21 22 22 22 21 21
23 23 22 21 21 21 21 21 21 21 22 22 21 23 23 24 24 24 24 25 24 24 24 23 24 24 22 22 21 21 21 22 23 24 24 24 22 23 22 21 21 21 20
22 22 22 20 21 21 21 21 21 21 22 22 23 22 22 23 24 23 24 24 25 24 24 24 24 23 23 23 22 21 21 22 22 22 24 24 24 23 22 20 19 19 20
21 21 21 21 21 20 20 20 21 21 21 21 22 22 22 23 22 23 24 24 24 24 24 24 24 24 23 23 22 22 22 23 22 22 24 23 21 23 23 23 22 20 21
21 21 20 20 19 20 20 20 20 20 21 21 21 21 21 21 22 22 23 24 24 24 24 23 24 23 23 23 23 23 23 22 21 21 23 22 20 21 22 23 22 22 21
20 20 20 20 18 19 20 20 20 19 20 20 19 21 21 21 21 21 21 22 22 23 23 23 23 22 22 22 22 23 23 22 22 22 23 23 22 22 23 23 23 23 22
18 18 20 19 19 19 19 19 20 20 19 19 19 20 20 21 20 20 21 21 22 23 23 23 23 23 22 22 21 22 22 21 21 21 22 23 23 23 23 23 23 22 23
18 17 18 18 18 18 18 18 19 19 19 19 19 19 19 19 19 19 19 20 20 20 20 21 21 21 20 21 21 21 21 21 20 21 21 22 22 22 21 22 21 20 22
17 16 17 17 18 19 18 19 19 18 17 17 18 18 18 19 19 18 18 18 19 19 19 19 20 20 19 19 19 20 20 20 22 22 22 22 22 21 21 21 21 20 22
15 16 17 17 18 19 18 19 19 19 19 19 19 18 17 18 18 18 18 18 19 18 19 19 19 19 18 18 18 19 19 21 22 22 21 22 21 21 21 20 21 22 23
17 16 17 18 18 19 19 19 18 19 19 18 17 17 17 17 18 18 18 17 18 19 19 18 19 18 18 17 18 18 19 20 21 21 22 21 22 21 21 21 21 21 22
18 18 18 19 20 20 19 19 19 19 19 18 17 15 15 16 17 17 17 17 18 18 18 18 17 17 17 17 17 18 18 19 19 20 20 21 20 20 20 20 19 20 20
18 18 19 18 19 19 20 21 22 21 21 19 17 17 17 16 16 17 17 17 17 17 17 17 17 17 16 16 17 17 18 18 19 18 19 20 20 20 20 19 20 20 20
18 18 19 19 19 19 21 22 23 22 22 22 22 22 21 20 19 18 17 17 17 17 16 15 16 16 16 16 16 16 16 16 16 17 17 18 19 18 18 18 19 19 19
19 19 20 21 20 21 20 20 21 19 19 22 22 22 22 21 17 17 17 18 18 16 17 17 17 17 18 18 19 18 18 18 17 16 16 16 16 17 19 19 18 19 18
20 20 19 21 21 21 21 20 18 18 18 18 19 19 18 18 17 17 16 16 17 16 18 20 20 19 19 18 17 16 18 17 17 16 16 16 16 16 16 17 17 17 17
18 19 21 21 21 21 22 22 22 18 18 18 18 18 18 17 16 16 16 16 16 16 20 20 20 20 20 19 19 18 16 15 15 15 15 15 16 15 15 15 16 17 17
17 18 20 20 20 21 21 21 22 22 22 20 18 17 17 16 16 16 16 16 18 17 20 19 20 19 17 16 15 16 15 14 13 14 15 15 14 16 15 15 15 16 17
19 19 19 20 20 20 21 21 22 21 21 22 20 17 17 16 15 14 14 14 19 20 20 20 18 16 15 14 14 15 15 15 14 14 13 13 14 15 14 16 15 15 15
19 18 18 20 20 20 21 21 21 21 21 21 21 21 18 16 17 18 16 19 18 18 19 18 18 15 13 13 14 15 16 15 15 15 15 15 15 14 14 14 15 15 15
20 19 18 21 21 20 20 20 20 21 21 22 21 21 19 19 20 21 20 20 19 19 19 19 18 18 14 13 15 16 17 15 16 17 17 16 14 14 15 16 15 14 13
20 20 20 20 20 20 20 20 20 21 21 21 21 21 19 19 20 21 20 20 20 19 18 18 17 17 16 14 15 17 16 16 16 16 16 15 15 16 16 16 16 15 15
20 21 21 21 21 20 20 20 20 20 20 20 21 21 21 21 21 21 21 21 20 19 19 18 17 16 16 14 15 15 15 16 16 15 14 14 15 16 16 16 15 14 13
18 20 20 20 20 19 20 19 19 19 19 19 20 20 20 20 21 21 21 21 21 20 19 19 18 18 16 15 15 14 14 14 14 14 14 14 15 15 16 16 15 14 13
19 19 19 19 19 19 19 19 19 19 19 19 19 19 19 19 19 19 19 19 19 19 19 19 19 18 18 17 16 16 16 14 13 13 13 13 14 15 15 14 15 14 14
18 18 18 18 18 18 18 18 18 18 18 17 17 17 17 17 17 17 16 16 16 16 16 17 18 18 18 18 17 16 15 14 13 12 11 13 13 14 15 15 15 15 15

GFSGL_925_temp_117.txt.gz
Temp
26 25 24 24 23 22 22 22 22 23 22 24 23 23 24 24 23 23 24 25 24 23 24 24 23 23 24 24 24 23 23 22 23 25 26 26 25 24 23 23 22 22 22
26 25 23 23 23 23 22 21 22 22 22 22 21 21 23 23 23 23 23 25 24 23 23 24 24 24 23 23 23 23 23 22 22 23 25 26 25 24 23 22 22 22 23
25 24 23 23 22 22 22 23 22 21 22 21 21 20 20 21 23 23 23 23 24 24 24 24 24 24 23 23 22 23 23 22 22 23 24 26 26 25 23 22 22 22 21
23 23 22 23 22 22 22 22 22 22 23 22 21 21 21 21 22 23 23 23 23 24 25 25 25 24 24 23 23 22 22 23 23 23 25 26 26 25 24 24 23 22 22
21 21 21 22 22 22 22 22 22 22 22 22 22 22 21 21 22 23 23 23 23 24 25 25 25 24 25 23 23 22 22 22 24 25 25 26 26 23 24 25 24 25 24
20 20 21 21 20 21 21 21 21 22 22 22 23 23 23 23 22 22 22 22 22 23 23 24 24 25 24 24 23 23 22 22 23 24 23 25 25 23 23 23 24 24 24
20 20 19 20 20 21 21 21 21 21 22 22 22 22 21 22 23 22 22 22 22 22 22 22 23 24 24 23 23 23 23 22 23 22 22 23 23 23 22 23 23 23 23
17 18 18 19 20 21 21 22 21 21 21 21 22 22 22 22 21 20 20 20 20 21 21 21 22 23 23 22 23 22 22 22 21 22 21 21 22 22 21 22 22 22 22
15 16 17 17 17 19 19 20 20 20 20 21 20 20 21 21 20 20 19 20 21 20 20 20 21 21 21 21 22 22 21 20 21 21 21 21 21 22 22 21 21 21 23
16 15 16 17 18 19 19 20 20 20 20 19 20 19 19 19 19 19 19 20 20 20 19 19 19 19 19 19 20 20 19 20 21 21 21 21 21 20 22 22 21 21 21
17 17 18 17 18 19 20 20 20 19 19 18 17 17 17 18 18 18 18 19 20 19 19 18 17 18 18 18 18 18 18 19 19 20 20 20 20 20 20 21 21 21 20
19 19 19 19 20 19 20 20 20 19 19 18 17 16 16 16 18 18 18 18 19 18 19 19 18 18 18 18 17 18 18 18 18 19 19 20 20 20 20 20 20 20 20
19 19 20 20 19 20 21 22 21 20 20 19 19 19 18 17 16 17 17 17 18 18 17 18 18 17 17 17 17 17 18 17 18 17 18 19 19 20 20 21 20 20 20
20 20 20 21 20 20 22 22 23 22 23 24 23 22 21 20 20 19 18 18 18 17 17 16 16 16 16 16 16 17 17 16 16 18 19 20 20 19 19 19 19 19 19
20 21 21 23 22 22 20 19 21 19 19 21 20 21 22 21 17 18 19 19 19 18 18 19 19 19 19 19 19 20 19 19 17 17 17 17 17 17 18 19 18 19 19
21 22 22 23 24 23 23 20 20 19 19 19 19 20 19 18 17 17 17 18 18 18 20 22 22 22 22 21 20 20 19 19 19 19 19 18 18 18 18 18 18 17 17
20 20 23 23 23 23 23 24 22 20 19 19 19 18 18 17 17 17 17 17 18 19 19 22 22 22 22 21 21 21 20 19 16 17 17 17 17 18 18 19 18 18 18
20 20 22 22 22 23 23 23 24 24 23 20 19 19 18 17 17 17 17 17 19 18 21 22 21 22 21 20 19 18 19 16 16 16 17 16 16 16 17 17 18 19 18
21 21 21 22 21 21 22 23 23 23 23 23 20 18 18 18 17 17 17 17 20 21 22 22 21 21 19 18 18 17 17 18 17 17 17 17 17 17 17 17 17 16 16
20 19 20 21 22 22 22 22 22 22 22 23 23 22 19 18 19 18 17 18 21 21 21 21 21 20 18 16 17 17 16 16 17 18 17 18 17 16 16 16 17 17 17
22 22 21 22 22 22 22 21 22 22 22 23 22 22 21 21 21 22 22 22 22 21 21 21 21 21 17 16 17 18 17 17 19 19 19 19 18 16 16 18 18 18 16
21 21 21 22 22 22 21 21 22 22 22 22 22 22 20 20 22 22 22 22 22 22 21 20 20 20 20 19 18 18 19 19 19 18 17 18 18 18 18 17 17 17 17
20 20 20 21 20 21 22 22 22 22 22 22 22 22 22 22 22 23 23 22 22 22 22 21 21 20 20 19 18 17 18 18 18 17 16 17 17 17 17 17 17 16 17
20 20 20 22 22 21 20 20 21 22 21 22 22 21 21 20 21 21 22 19 19 19 19 20 20 20 20 19 18 18 17 17 16 16 15 15 15 16 16 16 16 16 16
19 20 20 21 21 21 21 21 21 21 21 20 18 17 17 16 15 15 16 16 17 17 18 18 18 18 16 17 16 15 17 18 16 16 16 15 15 15 16 15 16 16 16
19 19 19 19 19 19 19 19 19 19 19 19 17 17 16 16 16 15 14 14 14 15 15 16 15 15 16 14 14 14 14 14 15 16 15 15 15 15 16 16 16 16 16

GFSGL_925_temp_123.txt.gz
Temp
22 23 24 24 25 25 24 24 24 23 23 23 24 24 24 23 22 23 22 22 22 22 22 21 22 22 22 22 23 23 23 22 21 23 23 24 24 24 25 25 24 24 24
19 21 21 22 23 24 24 24 24 23 23 23 23 23 22 22 18 18 19 19 22 22 22 21 21 21 22 22 23 23 23 23 22 21 22 23 23 24 24 24 24 24 24
17 17 19 20 22 23 23 23 23 23 22 22 22 22 20 18 18 18 17 18 20 21 22 22 22 22 21 22 22 22 22 22 22 22 22 22 23 23 23 24 24 24 23
16 17 17 19 20 21 22 22 22 22 22 22 21 21 20 19 19 19 19 18 17 20 21 21 22 22 22 22 21 22 22 22 22 22 22 22 22 22 23 23 23 23 23
15 16 17 18 19 20 20 20 21 21 22 22 21 21 20 19 20 22 22 22 17 18 20 21 21 22 22 23 22 21 21 21 21 21 21 21 21 22 23 24 23 24 23
15 16 17 17 17 17 18 18 20 20 21 22 21 21 19 19 18 19 18 17 18 20 19 20 23 22 22 21 23 23 22 22 21 21 20 21 21 22 23 24 23 22 21
16 16 16 16 16 17 17 18 19 20 21 21 21 21 20 19 19 18 18 17 19 19 19 19 20 22 23 22 20 23 23 23 23 22 21 21 22 23 23 23 23 23 22
16 15 15 16 16 16 16 18 20 20 21 21 21 21 21 21 20 20 20 19 18 20 20 23 21 23 25 23 19 21 23 23 23 22 22 23 22 22 22 22 22 22 22
15 15 15 16 15 16 16 17 18 20 20 21 21 21 21 21 21 21 21 18 17 18 18 20 20 21 22 20 19 22 23 23 23 23 22 22 22 22 22 22 21 21 20
16 16 16 16 16 16 16 17 17 18 19 20 21 21 21 20 20 19 20 20 19 20 20 20 20 21 21 22 22 23 22 22 22 22 20 21 21 21 21 22 22 20 20
16 17 17 17 16 16 16 18 17 17 18 17 17 17 17 19 18 18 19 19 19 20 20 20 19 20 19 19 21 21 21 20 19 19 19 19 19 20 20 21 21 20 20
17 18 20 20 19 18 17 17 18 16 17 16 16 16 16 17 17 17 18 18 18 19 19 19 18 18 18 18 18 18 18 19 18 18 18 19 19 19 20 21 20 20 20
18 18 19 20 20 18 17 16 17 19 17 17 17 16 16 17 16 17 17 18 19 18 18 18 18 17 17 17 17 17 17 17 18 17 18 18 19 19 19 19 20 20 20
18 18 20 21 20 20 19 19 19 19 18 19 18 17 17 17 17 17 17 17 17 17 17 17 17 17 18 17 17 17 17 17 17 17 18 18 18 18 19 19 19 19 18
19 19 20 21 20 20 19 18 19 19 19 19 19 18 18 17 17 18 18 18 18 17 17 17 17 17 17 17 17 17 17 17 17 17 17 18 18 18 18 18 18 18 17
19 20 19 20 21 20 20 18 18 19 19 19 19 20 19 18 18 18 18 18 18 19 19 18 18 18 18 19 18 19 18 18 17 18 17 17 17 17 17 18 18 18 18
19 20 20 21 22 21 20 19 19 19 19 19 19 19 18 18 18 19 19 19 19 19 19 19 20 20 19 19 19 19 18 18 18 17 17 16 17 17 17 17 17 17 17
20 21 21 21 22 22 22 21 20 19 19 19 19 19 19 19 19 19 19 19 20 20 20 20 20 19 19 19 19 18 17 17 17 17 17 17 17 17 17 17 17 17 17
20 20 21 20 21 22 22 22 22 21 20 19 19 19 20 20 20 20 20 19 19 20 20 21 20 20 20 19 18 18 17 17 17 17 17 17 17 17 17 17 17 16 16
20 20 21 21 21 21 22 21 21 21 22 19 20 20 20 20 20 20 20 20 20 20 20 21 20 20 20 19 19 17 17 17 17 17 17 17 17 17 17 17 17 16 16
20 20 20 20 21 21 21 21 21 21 21 21 21 20 19 18 17 16 18 17 18 18 19 21 21 20 19 19 19 18 18 18 18 18 18 18 18 17 18 18 17 17 17
19 20 20 20 21 21 21 21 21 21 19 19 18 18 18 17 17 16 16 16 16 17 16 18 16 16 17 16 17 17 16 16 16 17 18 18 17 17 17 17 16 16 16
19 19 20 20 20 20 20 20 20 20 19 18 18 17 17 16 15 15 15 15 15 16 16 16 16 15 15 15 13 14 14 14 14 14 14 16 16 16 16 16 15 15 15
19 19 19 18 18 18 18 18 18 18 17 17 17 16 15 15 14 13 13 13 14 14 14 14 14 14 13 13 13 13 13 12 12 13 12 13 14 15 15 15 15 15 15
18 18 17 16 16 16 16 16 16 16 16 16 16 16 16 15 14 13 13 13 13 12 12 12 12 12 12 11 11 11 11 11 11 12 12 12 12 12 13 13 15 15 15
17 16 15 15 15 15 15 15 15 15 15 14 14 14 13 13 13 13 12 12 12 12 11 11 11 10 10 10 10 10 10 10 10 10 10 11 10 9 10 11 12 13 14

GFSGL_925_temp_129.txt.gz
Temp
19 18 18 18 18 18 18 18 18 19 19 21 21 23 23 22 22 22 21 20 19 19 20 20 20 21 21 20 21 20 19 19 20 22 22 22 23 23 24 24 23 24 24
17 17 17 17 17 17 17 17 18 18 19 18 21 21 22 22 22 21 22 20 19 17 17 17 19 21 21 21 20 21 21 20 19 21 21 21 22 23 23 23 23 23 23
17 17 17 16 16 16 17 17 18 17 18 19 19 21 22 22 21 21 21 20 20 20 19 19 19 19 19 20 20 21 21 20 20 20 21 21 21 22 22 22 23 23 23
17 17 16 16 16 15 15 16 16 17 17 17 19 20 21 21 21 20 20 20 20 22 22 22 21 21 19 19 20 20 20 19 19 19 19 20 21 21 21 21 21 22 23
16 16 16 16 16 16 16 15 15 15 16 16 16 17 19 21 21 20 20 20 22 20 19 19 21 18 19 21 19 19 19 19 19 19 19 19 19 20 20 21 21 22 22
16 16 16 16 16 16 15 15 15 14 15 15 15 17 18 19 20 20 20 19 19 18 18 19 18 18 19 18 19 20 21 20 19 19 20 20 19 20 21 21 21 20 19
17 17 17 17 17 16 15 15 16 14 15 14 15 17 18 18 18 19 20 19 17 17 18 18 18 18 18 18 21 20 20 20 20 20 20 19 20 21 22 21 20 20 21
17 17 17 17 16 16 15 16 15 15 15 15 16 17 18 18 19 19 19 18 17 16 17 17 18 18 18 19 20 20 20 20 20 20 20 20 22 22 22 22 21 21 20
17 17 17 17 16 16 17 16 15 15 15 15 16 17 18 18 19 18 18 17 17 16 17 16 17 17 18 19 18 18 17 18 19 20 20 20 20 21 22 21 20 19 19
17 16 17 16 15 15 16 15 14 15 15 16 17 17 18 19 19 19 18 17 16 16 17 17 17 18 18 19 18 19 18 19 19 19 19 20 20 20 21 22 22 19 19
17 17 17 16 16 16 17 15 15 15 16 16 16 16 16 16 18 19 18 17 17 17 17 17 17 18 18 17 17 17 18 19 19 19 18 19 19 19 19 19 20 20 19
17 16 16 16 16 16 17 17 16 16 16 15 15 15 14 14 16 17 17 17 17 17 16 17 17 17 17 18 18 18 18 18 18 18 18 18 18 18 18 18 18 18 18
17 17 16 18 17 17 18 18 17 17 16 15 14 13 14 14 14 16 16 17 17 17 17 17 17 17 17 17 17 17 17 17 17 17 17 17 17 17 17 17 17 17 17
17 19 18 18 17 17 17 17 17 16 16 16 15 14 13 14 15 15 16 16 16 16 16 16 16 16 16 16 16 16 17 16 16 16 16 16 17 17 17 17 17 17 17
17 19 20 18 17 17 18 18 18 17 17 17 16 15 15 15 13 15 16 16 16 16 16 16 16 15 16 15 15 16 16 16 16 16 16 17 16 16 16 17 17 16 16
17 18 18 19 18 16 17 18 18 17 17 16 17 16 16 16 17 17 17 17 17 17 17 16 16 16 15 14 15 16 16 16 16 16 15 16 16 16 16 16 16 16 16
18 18 18 19 20 17 17 17 17 18 17 17 17 18 18 17 18 18 18 18 17 17 17 16 16 16 16 16 16 16 16 16 16 16 16 16 16 16 16 16 16 16 16
19 19 19 19 19 19 19 19 18 18 17 17 18 18 18 18 18 18 18 19 18 18 17 17 18 18 18 17 17 17 16 16 16 16 16 16 16 16 16 16 16 16 15
20 19 19 19 19 18 19 18 19 19 16 17 17 17 18 18 18 18 18 17 16 16 17 18 17 17 18 18 17 16 16 16 16 16 16 16 16 16 16 16 16 16 16
19 19 20 19 20 20 20 18 17 17 16 16 15 15 16 17 15 14 14 14 14 14 15 15 16 16 16 16 16 16 15 15 15 15 15 15 16 16 16 16 16 15 15
18 19 19 19 19 19 18 17 16 15 14 14 14 15 15 15 14 14 14 14 14 14 14 14 14 14 14 15 15 15 15 15 14 14 14 14 15 15 15 15 15 15 15
18 17 18 16 16 16 16 16 16 15 15 14 14 14 15 15 14 13 13 13 13 13 13 13 13 13 12 13 12 12 12 12 12 12 12 12 13 13 13 14 14 14 14
17 17 16 16 15 15 15 15 15 14 14 14 14 13 13 13 13 12 12 12 12 12 12 12 12 12 12 12 12 12 11 11 10 11 12 12 12 12 12 11 12 12 12
16 16 15 15 15 14 14 13 13 13 12 12 12 12 12 11 11 11 11 11 11 12 12 12 12 11 11 11 11 10 10 9 9 10 10 10 10 10 10 10 10 10 10
15 14 14 14 13 13 13 12 11 11 11 11 11 11 10 10 10 10 10 10 10 10 10 10 10 10 10 9 9 9 9 9 9 8 8 8 8 8 8 8 8 8 8
13 13 12 12 12 12 11 11 11 11 10 10 10 10 10 10 10 10 10 9 9 9 9 9 9 9 8 8 8 8 8 8 7 7 7 7 7 7 7 7 6 6 6

GFSGL_925_temp_132.txt.gz
Temp
18 18 18 18 18 18 17 17 17 17 17 18 18 18 19 19 20 22 21 19 19 19 19 19 19 19 18 19 19 19 19 19 20 21 21 22 22 23 23 23 23 23 23
17 18 17 17 17 17 17 17 17 17 17 16 17 18 18 18 19 20 21 22 19 19 19 19 19 20 18 19 19 19 19 19 19 20 21 21 22 23 23 23 23 23 23
18 18 17 17 16 16 17 17 16 16 16 16 15 16 17 18 18 19 21 22 21 21 20 19 22 23 22 17 18 19 19 19 19 19 21 21 21 22 22 21 22 23 23
18 17 17 17 17 17 17 17 16 16 15 16 15 15 16 17 18 18 20 20 20 21 20 20 19 18 17 18 21 19 19 19 19 19 19 20 20 20 21 21 21 22 23
17 17 17 17 17 17 17 17 17 16 15 14 14 14 15 16 16 18 18 19 20 20 20 19 18 18 18 17 18 19 19 19 19 19 19 19 19 19 19 20 20 21 22
16 17 17 17 17 17 17 17 17 15 15 15 15 15 14 15 16 17 17 18 19 20 20 19 17 17 18 18 19 19 20 19 19 19 19 20 20 19 19 19 19 19 20
17 17 17 17 16 17 16 15 15 15 14 14 14 15 14 15 16 17 17 17 18 18 18 17 16 17 18 18 19 18 20 19 19 19 19 20 20 20 19 19 19 19 20
16 17 17 17 16 15 15 15 15 14 14 14 15 15 15 16 17 17 17 17 17 17 17 17 17 17 18 18 18 18 19 20 20 19 19 19 20 20 21 20 22 20 19
16 17 17 16 15 14 15 16 15 13 14 15 15 15 16 16 17 17 17 17 17 17 17 16 16 17 18 17 17 18 19 19 20 20 19 19 19 20 20 20 19 19 19
17 17 17 16 15 14 16 16 15 14 14 14 15 15 15 15 16 17 17 17 17 17 16 16 16 16 17 18 17 18 17 19 20 19 18 18 19 19 19 19 19 19 19
17 17 17 16 16 16 17 16 15 15 14 14 13 13 13 14 15 16 16 16 16 16 16 16 16 16 17 17 18 18 18 18 18 18 18 18 19 19 20 19 19 19 19
17 17 17 18 17 17 18 17 16 15 15 14 13 13 13 13 13 15 16 16 17 17 17 17 17 17 16 17 17 17 17 17 17 17 17 17 17 17 17 19 19 19 18
17 17 17 18 19 19 18 16 16 16 15 14 13 13 13 13 13 14 16 17 17 16 16 16 17 17 17 17 17 17 17 17 16 18 18 17 17 17 18 18 18 18 18
17 18 18 19 19 18 17 17 16 16 16 14 13 13 14 14 12 13 14 15 15 16 16 16 16 17 16 16 16 16 16 17 17 17 17 17 17 17 17 17 17 17 16
17 17 18 19 18 17 18 16 17 15 16 16 15 15 14 14 13 14 14 15 15 16 16 16 15 15 15 16 15 15 15 15 15 16 16 16 16 16 16 16 16 16 16
17 18 18 18 18 20 18 17 16 17 17 17 16 16 15 15 16 16 16 16 16 17 17 16 15 14 14 14 14 14 14 14 15 15 15 15 15 15 15 15 16 16 15
17 17 17 18 17 18 18 17 16 17 17 16 17 17 16 17 17 17 17 17 17 18 16 15 15 15 14 15 14 14 14 14 14 15 14 15 15 15 15 15 15 16 15
18 18 18 17 19 19 18 17 17 17 17 16 14 15 16 17 18 19 19 20 17 17 16 15 15 15 15 15 15 15 15 15 15 15 15 15 15 16 15 15 15 15 15
18 18 18 18 20 20 19 17 17 16 15 15 16 16 16 16 16 17 17 15 13 13 14 14 15 15 15 15 15 15 15 15 15 15 15 15 16 16 15 15 15 15 15
18 18 19 19 19 18 18 17 16 15 14 13 14 14 15 16 15 13 13 12 12 12 12 13 13 14 14 14 14 14 15 15 15 15 15 15 15 15 15 15 15 15 15
19 19 19 19 18 17 16 15 14 14 13 13 13 14 14 14 12 12 12 12 12 13 13 13 13 13 13 13 13 13 12 11 12 12 12 12 13 13 13 14 14 14 14
18 18 17 17 16 15 15 14 14 13 13 13 13 13 13 13 12 12 11 11 11 12 12 12 12 12 12 11 11 12 11 11 11 11 11 11 11 11 11 11 11 12 12
17 16 15 15 14 14 13 13 12 12 12 12 12 11 11 11 11 11 11 11 12 12 12 11 11 11 11 11 11 10 10 10 9 9 10 10 10 10 10 10 10 10 10
16 15 15 14 14 13 12 12 12 12 11 10 10 10 10 10 10 10 10 10 11 11 11 11 10 10 10 10 9 9 9 9 9 9 9 9 9 9 9 9 8 8 8
15 15 14 13 13 12 12 11 10 11 11 10 10 10 10 10 10 9 9 9 9 9 9 9 9 9 8 8 8 8 8 8 8 8 8 7 7 7 6 6 6 6 6
13 13 13 12 11 11 10 10 9 9 9 9 8 8 8 8 8 7 7 7 7 7 7 7 7 7 7 7 7 7 7 7 6 6 6 6 5 5 5 5 5 5 6

GFSGL_925_temp_135.txt.gz
Temp
19 18 17 17 17 16 16 16 16 16 16 16 17 17 17 18 18 19 19 20 20 20 20 19 20 20 20 20 20 21 22 21 21 23 24 24 22 22 23 23 23 23 23
18 17 16 16 16 16 16 16 16 16 16 16 16 16 17 17 17 18 19 19 20 20 20 19 19 19 19 19 19 19 20 21 22 22 23 24 23 22 22 22 22 23 23
16 16 16 16 16 16 16 16 16 16 16 16 16 16 16 16 16 17 18 18 19 20 20 20 19 19 19 19 19 19 20 20 21 22 23 24 23 23 22 21 22 22 22
17 17 16 16 16 16 16 16 16 16 16 16 16 16 16 15 15 16 17 18 18 19 20 20 20 20 19 18 18 19 19 20 20 20 21 23 23 23 22 23 23 22 23
17 16 16 16 16 16 16 16 16 16 16 16 16 16 15 15 15 15 16 18 18 19 19 20 20 20 19 19 19 19 19 19 19 19 19 20 23 22 22 23 23 24 24
16 16 16 16 16 16 16 16 16 16 16 16 15 14 14 14 15 15 15 16 17 18 19 19 20 19 18 18 19 20 19 19 19 19 19 20 21 21 22 23 24 24 25
15 16 16 16 16 16 16 16 16 16 15 15 14 12 14 15 15 15 15 15 16 17 18 19 20 20 18 17 17 18 18 19 20 20 20 20 21 21 21 21 22 23 23
16 16 16 16 16 16 16 16 16 16 15 14 13 13 14 15 15 15 15 15 16 17 18 19 20 19 18 18 18 18 18 19 18 19 19 20 20 20 20 21 21 21 22
16 16 16 16 16 16 16 16 16 16 15 13 13 13 12 13 14 15 16 16 17 17 17 18 18 18 17 18 18 18 18 19 19 19 20 20 20 20 20 20 20 21 23
16 16 15 15 16 16 15 14 15 16 15 14 13 13 12 12 12 13 15 16 16 17 17 17 17 17 16 17 17 18 19 19 18 18 19 19 19 19 19 19 20 20 24
17 16 16 16 15 15 15 15 15 15 15 15 14 13 12 12 12 13 15 15 16 17 17 16 16 16 16 16 16 17 19 19 18 18 19 19 19 18 18 19 19 20 22
16 16 17 17 16 15 16 16 15 15 15 15 14 13 13 13 12 13 15 15 16 16 16 16 16 16 16 16 16 16 17 17 17 17 17 20 20 20 20 19 18 19 19
17 17 17 17 16 16 18 17 16 16 15 16 14 13 14 13 13 13 13 15 16 16 16 16 16 16 16 15 16 16 16 16 16 16 17 17 18 19 18 18 18 18 18
17 17 17 17 17 18 18 17 16 17 16 15 14 13 13 13 13 15 12 14 15 15 15 15 15 15 15 15 16 16 14 15 16 16 17 17 17 18 17 17 17 17 17
17 17 18 19 18 18 17 17 17 16 15 12 15 13 12 12 13 14 14 15 14 15 15 15 15 16 15 14 13 13 14 13 14 14 15 15 15 15 15 16 17 16 16
17 19 19 18 19 19 17 18 17 17 15 13 13 14 15 14 15 14 15 15 16 17 17 18 18 17 16 14 12 13 13 13 13 13 14 14 14 14 15 15 16 15 15
17 18 19 18 19 18 18 19 19 17 16 14 13 13 14 14 16 16 16 17 17 18 18 18 18 17 17 16 15 13 13 14 14 14 14 14 13 14 14 14 15 15 14
17 17 18 18 18 18 18 18 18 18 18 15 14 15 15 15 15 17 17 18 16 16 17 17 17 17 17 17 16 15 14 14 14 14 16 15 16 16 16 16 16 15 15
18 19 19 18 18 17 18 17 18 17 16 16 15 15 15 15 15 16 14 13 13 13 14 14 15 16 16 16 16 15 15 15 15 15 15 15 15 16 15 15 15 15 15
17 18 18 18 18 17 17 17 17 16 15 14 14 14 15 15 14 14 13 12 12 13 13 14 12 12 13 13 14 14 14 14 15 15 15 15 15 15 16 16 17 16 16
19 18 18 17 16 17 16 15 15 16 16 15 13 11 13 14 14 13 13 13 12 12 12 12 13 12 12 12 12 12 12 13 12 12 13 12 13 14 15 16 16 16 16
17 18 17 17 16 16 15 15 15 15 15 15 14 13 12 13 13 13 12 12 12 11 11 11 11 11 11 11 11 10 9 10 10 10 10 11 12 12 12 12 13 13 13
16 16 16 15 15 14 14 14 13 14 14 13 13 13 13 12 12 12 12 11 11 11 11 10 10 11 10 10 9 9 9 8 8 8 8 9 10 9 9 10 10 11 11
15 16 15 14 14 14 14 13 12 12 13 12 12 12 11 11 11 10 10 10 10 10 10 10 10 9 9 9 9 8 7 7 7 8 8 9 9 9 10 10 10 9 10
14 14 13 14 14 13 13 13 12 12 12 11 11 11 11 11 10 10 9 9 9 9 9 8 8 8 8 8 7 6 6 6 6 6 7 7 8 8 9 9 9 9 10
14 13 13 12 12 12 12 12 11 11 11 10 10 9 9 9 9 8 8 8 7 8 7 7 7 7 7 8 6 6 6 6 5 5 5 6 7 7 7 7 7 8 8

GFSGL_925_temp_138.txt.gz
Temp
22 21 20 20 20 19 19 19 19 19 19 19 19 19 19 19 19 19 19 20 20 20 20 21 21 22 22 21 21 21 22 22 24 27 27 28 27 26 25 25 25 25 25
21 20 19 19 19 19 19 19 19 19 19 19 19 19 19 19 19 19 19 20 20 20 20 20 21 22 21 21 21 21 22 22 22 23 27 27 26 26 24 23 24 26 26
20 20 19 19 19 19 19 19 18 18 19 19 19 19 19 18 18 18 18 18 19 20 20 20 20 21 21 22 22 22 21 22 22 22 25 25 26 26 24 23 24 24 25
20 20 19 19 19 19 19 19 19 19 19 19 19 18 18 18 17 17 18 18 18 19 19 20 20 20 21 21 22 22 22 22 23 23 24 24 25 25 26 26 26 24 25
20 20 19 19 19 19 19 19 19 19 19 19 18 18 18 17 15 14 14 15 16 17 19 20 20 20 21 21 22 22 21 20 22 24 24 23 24 24 23 24 25 27 27
20 20 19 19 19 19 19 19 19 19 19 18 18 17 17 15 13 13 15 14 15 16 17 19 20 20 20 21 21 22 21 21 22 24 25 24 21 20 22 22 23 27 28
19 19 19 19 19 19 19 19 19 19 17 18 17 17 16 13 12 12 13 14 15 15 16 18 19 20 21 21 20 20 20 20 21 21 22 22 22 22 22 21 22 23 25
20 20 20 19 19 19 19 19 18 18 18 18 17 17 15 13 12 11 12 13 15 15 16 19 19 20 20 20 20 19 19 19 19 19 19 20 21 21 21 21 22 22 22
20 20 20 19 18 18 19 18 17 18 18 18 18 16 13 12 12 12 11 12 14 15 18 19 20 19 19 20 19 20 20 21 21 20 20 20 19 19 20 20 20 20 21
20 20 19 18 18 18 18 17 15 18 18 18 18 16 12 14 12 12 10 12 14 16 17 18 18 19 19 19 19 20 20 21 22 22 20 19 19 19 20 19 18 20 21
19 19 19 19 18 18 17 17 17 19 18 18 18 16 14 15 13 11 12 14 15 17 17 17 17 17 18 18 18 18 19 20 20 20 21 21 20 19 20 19 19 19 21
19 19 19 19 19 19 18 18 19 19 18 19 19 16 14 14 13 12 13 14 16 16 17 17 17 16 17 16 16 16 16 17 18 19 20 20 19 20 21 20 20 20 20
19 19 19 19 19 19 19 18 20 20 20 20 20 17 13 13 13 13 13 13 14 15 16 15 15 15 14 14 15 15 15 15 17 18 19 19 18 19 20 20 20 19 19
19 20 19 19 20 19 20 20 20 20 19 19 19 16 14 13 13 13 13 13 14 15 15 13 13 13 13 13 13 13 14 14 15 15 16 16 17 17 18 18 19 19 19
20 20 20 21 22 21 21 21 20 17 16 16 15 13 14 12 14 13 14 14 15 15 15 15 15 14 13 13 13 13 13 14 13 14 14 14 14 14 14 15 16 17 18
20 21 22 22 22 23 22 22 18 17 16 14 12 12 13 13 15 15 16 16 18 17 17 18 19 19 19 17 16 14 13 14 13 14 13 13 13 13 14 14 14 14 14
19 20 21 21 23 22 22 22 22 16 16 15 13 13 13 14 14 15 16 16 16 18 20 20 20 21 20 20 18 16 13 13 13 14 15 15 14 13 14 14 14 14 13
19 19 20 22 22 22 19 19 21 21 18 17 15 15 14 14 15 15 15 17 15 16 17 17 18 18 18 19 19 19 18 17 15 15 15 17 17 16 15 15 14 13 13
20 22 22 22 22 21 19 20 21 20 19 15 16 18 16 15 15 14 14 14 14 14 15 16 15 16 17 16 17 17 17 16 16 16 17 17 17 18 18 17 16 16 17
20 20 20 22 20 21 21 21 20 19 18 18 17 17 17 18 16 16 14 14 14 14 13 14 14 14 13 14 15 16 16 16 16 15 15 15 15 17 17 18 18 19 18
22 22 19 21 21 20 21 20 19 19 18 17 15 14 15 17 16 15 15 14 14 13 13 13 14 13 13 14 12 11 12 13 13 13 13 12 13 15 15 16 17 16 15
20 21 21 21 20 20 20 19 18 18 18 18 17 15 15 16 16 15 15 14 14 14 13 13 13 13 12 12 12 13 13 13 12 11 11 11 12 12 12 12 12 15 16
14 15 17 18 18 17 19 19 18 18 18 17 16 16 16 15 15 14 14 13 13 13 13 13 13 12 12 12 11 10 10 10 11 11 11 13 13 13 14 14 14 14 13
13 14 18 18 18 18 18 17 16 15 16 16 16 15 15 14 14 13 13 12 12 12 12 12 12 11 11 11 11 10 6 6 7 8 9 11 11 12 12 13 13 14 13
14 16 17 18 18 17 17 17 17 16 16 15 15 14 14 13 13 12 12 11 11 11 11 11 11 10 10 10 7 4 5 5 5 5 6 8 10 10 11 11 11 11 12
16 16 16 16 16 15 15 15 15 15 14 14 13 13 13 12 12 11 11 10 10 10 10 10 10 9 9 8 4 4 4 4 4 4 4 7 8 9 9 9 9 9 10

GFSGL_925_temp_141.txt.gz
Temp
25 24 23 22 22 21 21 21 21 21 20 20 20 20 20 20 20 20 20 20 20 20 20 21 21 21 21 22 23 23 23 22 20 21 24 27 29 28 28 27 27 26 26
24 23 22 21 21 21 20 21 20 20 20 20 20 20 20 19 19 19 19 19 19 19 20 20 21 21 21 21 22 22 23 23 21 21 21 22 23 25 27 27 27 27 26
23 23 22 21 21 20 20 20 20 20 20 20 20 20 19 19 19 19 18 18 18 18 18 19 20 21 21 21 21 22 22 22 21 21 21 21 20 22 25 25 24 25 25
23 22 22 21 21 21 20 20 20 21 21 20 20 20 20 19 19 19 18 17 15 14 14 16 18 19 20 20 21 21 22 22 21 21 21 21 22 23 24 22 23 23 23
23 22 22 21 21 21 20 21 21 20 20 20 20 19 19 19 19 18 16 15 12 13 13 15 16 17 19 20 20 21 21 21 22 21 22 23 24 25 25 26 25 22 23
23 23 22 21 21 20 20 20 21 20 20 20 19 19 19 19 17 16 15 12 12 12 13 14 15 16 18 19 20 20 21 21 21 22 23 24 24 25 25 25 25 24 23
22 22 21 21 21 20 20 20 20 20 19 19 19 19 19 18 16 15 13 12 12 12 12 14 15 17 18 19 20 20 20 21 21 21 22 24 25 25 24 24 23 22 22
22 22 21 21 21 20 20 20 20 19 19 19 19 19 18 17 15 13 12 12 12 11 11 14 15 17 18 19 19 20 20 20 21 21 21 22 22 22 22 23 22 22 21
23 22 22 21 20 20 20 20 19 19 18 19 19 19 17 15 14 13 13 11 10 11 12 15 17 18 18 19 19 20 20 21 22 21 20 21 20 20 21 20 20 20 21
23 22 21 20 20 20 20 19 19 18 20 19 19 18 16 15 14 14 13 11 10 12 14 15 17 18 19 19 20 19 20 21 22 23 21 20 20 20 20 20 20 19 20
22 21 21 20 20 20 20 19 19 19 19 19 20 18 16 14 14 14 13 10 13 14 16 17 17 18 19 19 19 19 19 20 20 21 21 20 20 20 21 20 19 19 18
22 21 21 20 21 21 20 20 19 19 20 21 21 19 18 14 14 14 14 13 13 14 14 15 16 16 16 17 17 17 17 18 18 19 19 19 20 21 21 21 21 19 19
21 21 21 21 21 20 20 20 21 22 21 21 21 19 18 15 14 15 15 14 14 13 13 12 13 13 13 14 14 15 15 16 16 16 18 19 19 19 18 18 19 19 19
21 21 21 20 21 21 21 23 23 22 21 20 19 17 17 15 14 15 15 14 14 14 13 13 13 13 13 13 13 13 13 14 14 15 15 15 16 16 16 17 17 19 19
21 21 22 22 22 23 22 23 22 18 17 17 15 15 14 14 14 14 15 15 15 15 14 14 14 15 14 14 13 13 13 13 13 13 13 13 13 14 14 14 14 14 14
19 22 23 24 24 24 24 20 19 18 17 15 14 14 14 13 15 16 16 15 15 16 17 18 18 19 18 17 17 15 15 13 13 13 13 13 13 13 13 13 14 13 14
18 21 22 23 23 23 24 21 16 15 15 15 15 15 15 14 14 14 16 17 15 16 15 15 16 17 17 19 18 16 16 16 15 14 13 14 14 14 14 13 14 13 13
19 20 21 22 24 24 23 22 22 18 19 17 16 15 16 15 15 14 14 15 14 14 15 15 15 16 17 17 17 18 17 17 17 16 16 16 16 15 15 15 14 14 13
20 22 21 22 23 23 23 23 21 22 20 19 18 16 17 17 16 15 14 14 14 14 15 14 14 14 14 15 16 17 17 17 16 16 15 15 16 16 16 16 16 16 16
21 22 21 23 21 23 21 21 19 21 20 20 19 18 18 19 17 17 15 15 14 14 14 15 14 14 14 13 13 14 15 14 15 15 15 14 13 14 15 17 17 16 16
22 20 19 23 20 22 21 21 22 20 19 18 17 16 16 17 18 17 16 15 15 14 14 14 14 14 13 13 13 15 15 15 15 15 14 14 15 15 14 14 14 15 16
17 15 16 16 18 16 18 21 20 20 20 19 19 17 17 18 17 17 16 15 14 14 14 14 14 13 14 13 12 12 11 11 12 12 13 14 15 15 15 16 16 16 16
16 16 15 15 17 18 18 20 19 19 18 19 19 18 18 17 16 15 15 15 14 14 14 14 13 13 12 13 11 9 8 7 9 9 9 12 13 13 14 14 15 15 15
14 14 14 14 14 15 17 20 19 18 19 19 18 18 17 16 16 15 14 14 14 14 13 13 13 12 11 11 9 6 5 5 5 5 7 9 11 12 12 13 14 14 13
12 13 14 14 15 19 20 19 19 19 18 18 17 17 16 16 15 14 13 13 13 13 13 13 12 11 9 6 4 4 5 5 5 5 5 7 9 10 11 12 11 11 12
15 15 15 17 18 18 18 18 17 17 17 16 16 15 15 15 14 13 12 12 12 12 12 12 11 10 10 6 4 3 4 4 5 5 6 7 9 9 10 9 10 10 11

GFSGL_925_temp_144.txt.gz
Temp
25 24 24 23 23 22 21 21 21 21 20 20 20 20 20 20 19 19 19 19 19 19 19 19 19 19 19 20 21 21 20 20 18 20 21 24 25 24 21 22 25 26 27
25 24 23 22 22 21 21 20 20 20 20 20 20 20 20 20 19 19 19 19 19 18 18 18 18 18 18 18 19 20 20 21 20 20 20 21 22 21 24 19 22 21 26
24 23 22 22 21 21 20 20 20 20 20 20 20 20 19 19 19 19 19 18 17 17 17 17 16 16 15 16 17 19 20 20 20 21 21 21 21 24 22 20 23 21 20
24 23 23 22 21 21 21 21 20 21 21 21 20 19 19 19 19 19 18 17 16 15 15 15 15 14 14 14 16 18 19 20 20 20 21 21 21 21 20 20 19 21 20
24 23 23 22 21 21 21 20 20 20 21 20 19 19 19 19 20 19 17 15 14 14 13 13 13 12 13 14 15 17 18 19 19 20 20 21 21 21 21 21 21 21 22
23 23 23 22 21 21 21 20 20 20 20 19 19 19 19 19 18 17 16 14 13 13 12 12 12 12 13 13 14 15 16 18 18 19 20 21 22 21 22 23 24 24 21
23 23 22 21 21 21 21 20 20 20 19 19 19 19 19 18 17 16 14 12 12 12 12 11 12 13 13 13 15 16 17 17 18 19 20 21 22 23 24 24 24 24 23
23 22 22 21 21 21 20 20 20 19 19 18 19 19 18 17 16 15 14 12 13 11 11 11 12 12 12 14 16 17 18 18 19 19 19 21 22 23 23 23 23 23 22
23 22 22 22 21 21 20 20 19 19 18 19 19 19 17 16 17 15 13 12 12 12 13 13 13 12 14 16 17 17 18 18 19 20 20 20 22 22 22 22 21 21 21
23 23 22 21 21 20 20 20 19 19 19 19 19 19 18 17 17 15 13 13 13 12 13 14 16 16 17 17 17 19 19 19 20 20 20 21 21 21 21 21 20 20 20
23 23 22 21 20 20 20 20 19 19 19 19 20 20 18 18 15 16 14 14 13 13 13 12 13 17 17 17 17 18 18 20 21 21 20 20 20 20 20 20 20 19 20
23 22 21 21 21 21 21 20 20 19 19 20 20 19 19 18 15 16 16 15 14 13 13 12 13 13 14 15 16 16 17 17 17 18 19 20 20 20 20 20 19 19 19
22 22 21 21 21 21 20 20 20 20 20 21 20 19 18 17 15 15 16 16 14 13 13 13 13 13 13 13 14 15 15 15 16 15 15 15 16 16 18 18 19 19 19
21 21 20 20 20 20 20 21 21 22 21 20 18 18 17 16 15 15 15 15 15 14 14 14 13 13 13 13 13 13 13 13 13 13 13 14 14 14 14 15 16 17 16
18 18 18 18 21 21 21 21 21 20 19 18 16 16 14 14 14 14 14 15 15 15 13 14 15 15 14 14 13 13 13 13 13 12 13 13 13 13 13 14 13 13 13
15 17 17 19 22 23 20 18 19 18 18 17 17 16 15 15 15 15 15 15 17 16 13 13 14 14 16 16 16 15 14 13 13 13 13 13 13 14 13 14 14 13 12
16 19 19 21 23 23 20 18 15 15 16 17 16 15 15 15 15 15 15 14 14 14 14 14 14 14 15 15 16 16 15 15 15 14 13 14 14 14 14 14 14 13 13
17 18 20 20 22 22 23 21 19 16 15 15 16 15 15 15 15 15 15 14 14 14 14 13 14 14 14 14 15 15 16 16 15 15 14 14 14 14 15 15 14 14 14
18 20 20 21 22 22 21 22 19 17 17 17 17 16 16 15 15 15 14 14 14 14 13 14 13 13 13 13 14 15 14 15 15 15 15 14 14 14 14 15 15 15 15
16 19 17 17 17 16 18 17 17 17 17 19 17 17 17 17 17 16 15 14 14 13 13 14 14 13 13 12 11 12 12 12 12 13 14 15 15 15 15 15 15 15 15
15 17 20 17 17 16 15 15 16 15 17 18 17 17 17 17 17 16 15 15 14 14 14 13 13 13 13 11 10 10 10 10 10 10 11 12 14 14 15 15 16 16 16
14 15 17 15 16 15 15 15 15 17 19 18 17 17 18 17 16 16 15 15 14 14 14 13 13 12 10 9 9 8 7 6 7 7 8 10 11 12 13 14 15 15 14
17 16 16 14 15 15 15 15 15 17 19 19 19 18 18 17 16 15 15 14 14 14 14 13 12 11 9 8 7 6 5 5 5 5 6 7 9 11 12 13 13 13 13
16 16 16 15 14 15 16 17 17 19 19 19 19 18 17 16 16 15 14 13 14 13 13 12 11 10 9 7 5 5 4 5 6 6 6 6 8 10 11 11 11 11 11
14 14 15 15 16 17 16 16 19 19 19 18 18 17 17 16 15 14 13 13 13 13 13 12 11 9 7 6 5 5 5 6 6 6 7 7 8 9 10 9 10 10 10
15 16 16 18 18 19 19 18 18 17 17 17 16 16 15 15 14 13 12 12 12 12 12 11 10 10 8 5 5 5 5 5 6 5 6 7 8 8 6 6 7 7 8

GFSGL_925_temp_147.txt.gz
Temp
25 24 24 23 23 22 22 21 21 20 20 20 20 20 20 20 19 19 19 19 18 18 18 17 17 17 17 17 17 17 18 18 18 19 20 20 21 21 21 24 21 24 19
25 24 23 23 22 22 21 21 21 21 20 20 20 20 20 19 19 19 19 18 18 17 17 16 16 16 16 16 17 17 17 17 17 18 19 19 19 20 21 22 24 21 20
24 24 23 23 22 21 21 21 20 20 20 20 20 20 19 19 19 19 18 17 17 16 15 15 15 15 15 15 15 16 15 15 15 17 18 19 19 19 20 20 21 20 21
24 24 23 22 22 21 21 21 20 20 20 20 20 19 19 19 19 18 17 17 16 14 14 14 14 14 14 14 14 14 14 14 15 16 18 18 19 19 20 21 19 20 21
23 23 23 22 22 21 21 20 20 20 20 19 19 19 19 19 19 17 16 15 14 13 13 13 13 13 13 13 13 13 13 13 15 16 17 18 18 19 19 19 19 20 20
23 22 22 22 22 21 21 20 20 20 20 19 19 19 19 18 18 16 15 14 14 12 13 13 12 12 12 12 12 13 13 13 14 16 17 17 18 19 20 20 22 19 18
22 22 22 22 21 21 21 20 20 20 19 19 19 19 19 18 17 15 15 14 12 13 13 13 13 13 12 12 12 13 13 13 13 14 16 17 18 19 20 21 22 22 21
23 23 22 22 21 21 21 20 20 19 19 19 19 19 18 18 17 15 15 15 13 13 13 13 12 13 13 12 12 13 13 14 15 15 15 16 18 20 21 22 23 23 22
23 23 22 22 21 21 21 20 20 19 19 19 19 19 18 17 16 16 15 14 13 13 13 13 12 12 13 13 13 13 14 16 17 17 17 16 18 19 20 21 20 20 19
23 23 22 22 22 21 20 20 20 19 19 19 19 19 18 18 17 16 14 14 12 13 14 13 13 12 14 16 14 15 16 16 17 18 17 17 19 19 20 21 22 20 19
22 23 22 22 21 21 20 20 20 19 19 19 19 19 18 17 17 16 15 15 12 13 13 13 13 13 12 14 15 16 16 16 18 19 18 17 18 20 21 21 21 20 19
23 23 22 21 21 20 20 20 20 20 19 20 19 18 18 17 17 16 15 15 14 13 13 13 13 13 12 13 13 15 16 16 16 16 16 16 17 18 20 20 20 19 18
22 22 21 21 20 20 20 20 20 20 20 20 18 18 17 17 16 16 15 15 15 15 13 13 14 14 13 13 13 13 13 13 14 14 14 14 15 16 18 18 17 17 17
19 18 19 18 19 19 19 20 20 20 20 19 18 16 17 17 16 15 15 15 15 15 14 13 14 14 14 13 13 13 13 12 12 12 13 13 13 14 14 15 15 15 15
17 16 17 18 19 20 18 18 19 19 20 19 17 17 16 16 15 14 14 14 14 14 15 14 12 13 13 14 13 12 12 12 12 13 13 13 13 13 13 13 14 13 13
16 17 17 19 16 15 16 16 17 18 18 18 17 17 16 15 15 15 14 14 14 14 13 12 12 12 13 13 13 13 13 12 13 13 13 13 14 14 14 14 14 13 12
18 18 18 15 16 15 17 15 14 15 16 17 16 16 16 15 15 15 15 14 13 13 13 12 12 12 12 12 13 13 13 14 14 14 14 13 13 14 14 14 14 14 13
18 16 15 16 18 18 17 15 14 15 15 15 16 16 15 15 15 14 14 14 13 13 13 12 12 11 11 11 11 11 11 11 11 12 13 14 14 14 13 13 14 14 14
16 16 17 17 17 18 18 17 16 15 15 15 16 16 15 15 14 14 14 14 13 13 13 12 12 11 10 10 10 10 10 9 10 10 10 12 13 14 14 15 15 15 15
17 18 17 17 16 16 17 16 16 15 15 15 15 17 17 15 14 14 14 14 14 13 13 12 11 10 10 9 9 9 8 8 8 9 10 10 11 12 12 13 14 14 13
16 16 17 16 15 15 16 16 15 15 16 16 17 17 17 16 15 15 14 14 14 13 13 11 11 10 9 9 8 7 7 7 7 7 8 9 10 10 12 12 12 12 12
15 14 15 16 16 15 14 14 15 15 16 16 17 17 16 16 15 14 14 14 14 13 12 10 9 9 8 8 7 7 6 6 6 6 7 8 9 10 10 10 10 10 11
16 16 15 15 16 15 15 15 16 16 16 16 17 16 15 15 14 14 14 13 13 12 11 10 9 8 7 7 6 6 6 6 6 6 7 8 8 9 9 9 9 9 10
16 16 15 15 15 15 16 16 16 17 17 17 17 16 15 14 13 13 13 13 12 11 11 10 9 8 7 6 6 5 6 6 6 6 6 7 8 7 8 7 7 8 8
15 15 15 14 14 14 15 16 17 17 17 17 16 15 14 13 12 12 12 12 12 11 10 8 8 7 6 6 6 6 5 5 6 6 6 6 7 6 7 6 6 6 6
15 15 16 16 16 16 16 17 17 16 16 15 15 14 13 12 12 11 11 11 11 10 9 8 7 7 6 6 6 5 5 5 5 5 5 5 6 5 5 5 6 6 5

GFSGL_925_temp_150.txt.gz
Temp
25 25 25 24 23 23 23 23 22 21 20 20 20 20 19 19 19 19 19 18 18 17 17 17 17 16 16 16 16 16 16 16 15 17 17 18 18 19 20 20 21 21 23
26 26 23 23 22 22 22 22 21 21 20 20 20 19 19 19 19 18 18 17 17 17 17 16 15 15 14 14 15 15 15 16 16 15 16 17 17 17 18 20 20 21 21
25 24 22 22 22 22 22 22 21 20 20 20 19 19 19 19 19 18 17 17 17 16 15 14 14 13 13 13 13 14 14 14 15 15 16 16 15 16 17 19 19 20 21
24 23 22 22 22 22 22 21 21 20 20 20 19 19 19 19 18 17 17 16 16 16 16 14 13 13 13 13 13 13 13 13 13 13 14 15 15 16 17 17 17 18 19
23 22 22 22 21 21 21 21 20 20 20 19 19 19 19 19 17 17 16 16 15 14 13 13 13 13 13 13 13 13 13 13 13 13 13 14 14 16 18 18 17 18 19
22 21 21 21 21 21 21 20 20 20 20 19 19 19 19 18 17 17 15 15 15 13 13 13 13 13 13 13 13 13 13 13 13 13 13 14 16 16 18 18 18 17 18
22 22 22 21 21 21 21 20 20 20 19 19 19 19 18 17 17 16 15 15 15 14 13 13 13 13 13 12 12 13 13 13 13 13 13 14 14 17 18 18 18 19 20
21 22 22 21 21 21 21 20 20 19 19 19 19 19 18 17 17 16 16 16 15 13 13 13 13 13 12 11 10 12 12 13 13 13 13 13 14 15 17 18 19 19 19
22 22 22 21 21 21 21 20 20 19 19 19 19 19 18 17 17 16 16 16 15 13 12 13 13 12 12 12 13 13 13 14 15 15 14 14 14 15 16 17 18 17 17
22 22 22 21 21 21 21 20 20 19 19 19 19 18 18 17 17 15 15 16 14 12 13 14 13 12 12 11 13 14 14 15 15 15 16 15 15 15 16 17 18 17 18
22 22 21 21 21 21 20 20 20 19 19 19 19 19 18 17 16 15 16 16 14 12 12 12 13 13 13 11 12 13 14 15 16 15 16 15 15 15 16 17 18 18 20
21 21 20 20 21 21 20 20 20 20 19 20 19 18 17 16 15 15 15 16 14 13 13 12 12 14 13 13 11 12 12 14 15 14 15 15 15 15 17 17 17 18 18
20 20 19 20 20 21 20 20 20 19 19 19 18 17 17 16 16 15 15 15 15 14 14 13 13 14 13 13 12 12 11 11 12 13 13 13 13 14 15 15 15 15 15
19 18 19 20 20 20 21 18 19 19 19 18 17 17 16 16 16 15 14 14 15 15 14 14 13 13 14 12 11 11 12 11 12 12 12 11 12 12 13 13 13 13 14
18 18 19 19 20 20 18 18 18 17 18 18 18 17 16 15 15 14 13 13 14 13 13 13 12 12 12 11 11 11 11 11 11 12 12 13 13 13 13 14 14 13 12
17 18 19 18 18 16 16 16 16 16 17 17 17 17 15 15 15 14 13 13 14 13 13 11 11 10 10 10 10 10 10 10 11 12 12 12 12 13 13 14 14 13 12
19 18 16 16 15 17 16 15 14 14 16 16 16 16 15 15 14 14 14 13 13 13 12 11 10 10 9 9 9 9 9 9 10 10 11 11 12 13 13 13 13 13 13
17 16 16 16 17 16 17 15 14 15 14 15 15 15 15 14 14 14 13 13 13 12 11 10 9 9 8 8 8 8 9 10 10 10 9 10 10 11 11 12 12 12 12
16 16 16 16 16 17 17 15 14 15 15 15 15 14 14 14 14 14 14 13 13 11 11 10 9 9 8 8 8 8 7 8 9 9 9 9 9 10 10 11 11 12 11
16 15 16 16 16 17 15 14 14 14 14 15 14 15 15 14 14 14 13 13 12 11 10 9 8 8 8 8 7 7 7 7 8 8 8 9 9 9 10 10 10 10 10
15 15 15 16 16 16 15 15 15 15 15 15 15 15 16 15 14 14 13 13 12 11 10 9 8 8 7 7 7 7 7 6 6 7 7 8 8 8 9 9 9 9 9
15 15 15 15 15 16 16 16 15 15 16 16 15 15 15 15 14 13 13 12 12 11 10 10 8 7 7 6 6 6 6 6 6 6 7 7 8 8 8 8 8 7 7
15 14 14 14 15 15 14 14 14 15 15 15 15 15 14 14 13 13 13 12 11 10 9 9 8 7 7 7 6 6 6 5 5 5 6 6 7 7 7 7 6 6 6
15 15 15 14 14 13 13 14 14 15 15 15 15 14 13 13 13 12 12 11 10 9 9 8 7 7 6 6 6 6 6 6 6 5 6 6 6 6 6 6 5 5 5
14 14 15 15 14 14 14 15 16 15 15 15 14 13 12 12 12 12 11 10 10 9 8 8 7 7 6 6 6 6 5 5 5 5 5 5 5 5 5 5 5 5 4
15 15 15 15 14 14 15 14 15 15 14 13 12 12 12 12 11 11 10 10 9 8 8 7 7 6 6 5 5 5 6 5 5 4 4 4 4 4 4 4 4 4 4